Home   Weather   Viña del Mar   Past weeks

Flag for Chile Past Weather in Viña del Mar, Chile — Yesterday and Last 2 Weeks

Now
50 °F

Fog.


Feels Like: 50 °F
Forecast: 52 / 62 °F
Wind: 2 mph from North

Location: Pudahuel

Current Time: Sep 28, 2016 at 5:35:42 AM

Latest Report: Sep 28, 2016 at 5:00 AM


Visibility: 3 mi

Pressure: 29.89 "Hg

Humidity: 82%

Dew Point: 45 °F

Location of Viña del MarLocation

Past Weather in Viña del Mar — Graph

°F

Viña del Mar Temperature Yesterday

Maximum temperature yesterday: 79 °F (at 3:00 PM)
Minimum temperature yesterday: 43 °F (at 8:00 AM)
Average temperature yesterday: 61 °F

High & Low Weather Summary for the Past Weeks

 TemperatureHumidityPressure
High88 °F (Sep 19, 4:00 PM)100% (Sep 15, 8:00 AM)30.18 "Hg (Sep 15, 8:00 AM)
Low37 °F (Sep 13, 8:00 AM)11% (Sep 19, 5:00 PM)29.89 "Hg (Sep 19, 4:00 PM)
Average60 °F63%30.01 "Hg
* Reported Sep 13 4:00 AM — Sep 28 4:00 AM, Viña del Mar, Weather by CustomWeather, © 2016

Note: Actual official high and low records may vary slightly from our data, if they occured in-between our weather recording intervals... More about our weather records

Advertising

Viña del Mar Weather History for the Previous 24 Hours

Scroll right to see more
 ConditionsComfort  
Time TempWeatherWind HumidityBarometerVisibility
4:00 AM
Wed, Sep 28
50 °FFog.5 mph88%29.92 "Hg3 mi
3:00 AM52 °FClear.2 mph82%29.92 "Hg5 mi
2:00 AM55 °FClear.3 mph77%29.92 "Hg5 mi
1:00 AM55 °FClear.6 mph77%29.95 "Hg5 mi
12:00 AM57 °FClear.5 mph72%29.95 "Hg5 mi
11:00 PM
Tue, Sep 27
59 °FClear.6 mph72%29.95 "Hg5 mi
10:00 PM61 °FClear.5 mph68%29.98 "Hg10 mi
9:00 PM64 °FClear.9 mph60%29.95 "Hg10 mi
8:00 PM68 °FClear.7 mph53%29.95 "Hg10 mi
7:00 PM72 °FSunny.10 mph47%29.92 "Hg10 mi
6:00 PM75 °FSunny.13 mph39%29.92 "Hg10 mi
5:00 PM79 °FSunny.13 mph26%29.92 "Hg10 mi
4:00 PM79 °FSunny.15 mph28%29.92 "Hg10 mi
3:00 PM79 °FSunny.14 mph28%29.92 "Hg10 mi
2:00 PM77 °FSunny.16 mph34%29.95 "Hg10 mi
1:00 PM73 °FPassing clouds.7 mph38%29.95 "HgN/A
12:00 PM70 °FSunny.1 mph43%29.95 "Hg10 mi
11:00 AM63 °FClear.2 mph59%29.98 "Hg5 mi
10:00 AM57 °FHaze.2 mph72%29.98 "Hg2 mi
9:00 AM46 °FCool.1 mph93%29.98 "Hg3 mi
8:00 AM43 °FQuite cool.No wind100%29.98 "Hg2 mi
7:00 AM46 °FCool.No wind93%29.95 "Hg1 mi
6:00 AM46 °FFog.5 mph100%29.95 "Hg0 mi
5:00 AM46 °FRain. Overcast.1 mph93%29.95 "Hg4 mi
Weather by CustomWeather, © 2016

See weather overviewHow to use our weather pages